This demonstration page uses our WeatherBlox Daily Observations layout. Learn more.

39.92423, -83.80882

Hourly Observations for April 6, 2017

Temp ( °F °C ) Dew Point ( °F °C ) Humidity (%) Winds ( mph kmh ) Pressure ( in mb ) Visibility ( mi km ) Precip ( " mm )
12:14 am 00:14 Mostly Cloudy with Mist and Fog 48 9 48 9 100 100 WNW 6 9 29.44 997 4 6.43736 0 0
12:56 am 00:56 Cloudy with Mist and Fog 49 9.4 49 9.4 100 100 W 6 9 29.42 996 4 6.43736 0 0
1:56 am 01:56 Cloudy with Mist and Fog 49 9.4 49 9.4 100 100 W 6 9 29.39 995 3 4.82802 0 0
2:33 am 02:33 Mostly Cloudy with Mist and Fog 52 11 52 11 100 100 SW 14 22 29.41 996 6 9.65604 0 0
2:38 am 02:38 Mostly Cloudy 52 11 52 11 100 100 SW 17 28 29.41 996 8 12.87472 0 0
2:56 am 02:56 Mostly Cloudy 53 11.7 50 10 89 89 SW 16 26 29.37 995 10 16.0934 0 0
3:56 am 03:56 Cloudy 53 11.7 48 8.9 83 83 SSW 14 22 29.36 994 10 16.0934 0 0
4:56 am 04:56 Cloudy 52 11.1 47 8.3 83 83 SW 14 22 29.36 994 10 16.0934 0 0
5:13 am 05:13 Cloudy 52 11 46 8 82 82 SW 12 19 29.38 995 10 16.0934 0 0
5:56 am 05:56 Cloudy with Light Rain 51 10.6 48 8.9 89 89 SW 10 17 29.35 994 10 16.0934 0 0.0254
6:19 am 06:19 Cloudy with Heavy Rain 48 9 46 8 94 94 WNW 13 20 29.38 995 5 8.0467 0.03 0.762
6:26 am 06:26 Cloudy with Heavy Rain 46 8 46 8 100 100 WNW 13 20 29.41 996 4 6.43736 0.08 2.032
6:36 am 06:36 Cloudy with Rain 46 8 45 7 93 93 WNW 15 24 29.41 996 7 11.26538 0.13 3.302
6:56 am 06:56 Cloudy with Rain 45 7.2 43 6.1 93 93 WNW 15 24 29.38 995 7 11.26538 0.19 4.826
7:07 am 07:07 Cloudy with Light Rain 45 7 43 6 93 93 WNW 14 22 29.41 996 7 11.26538 0.02 0.508
7:44 am 07:44 Cloudy with Light Rain 45 7 43 6 93 93 W 13 20 29.44 997 6 9.65604 0.03 0.762
7:56 am 07:56 Cloudy with Light Rain 44 6.7 43 6.1 96 96 W 12 19 29.41 996 4 6.43736 0.04 1.016
8:18 am 08:18 Cloudy with Light Rain 45 7 43 6 93 93 WNW 14 22 29.44 997 10 16.0934 0 0.0254
8:56 am 08:56 Cloudy with Light Rain 43 6.1 41 5 93 93 WNW 17 28 29.43 997 6 9.65604 0.02 0.508
9:56 am 09:56 Cloudy with Light Rain 41 5 39 3.9 93 93 WNW 16 26 29.45 997 10 16.0934 0.01 0.254
10:56 am 10:56 Cloudy with Light Rain 38 3.3 36 2.2 93 93 WNW 21 33 29.48 998 8 12.87472 0.01 0.254
11:46 am 11:46 Cloudy with Light Rain 39 4 36 2 87 87 W 23 37 29.53 1000 9 14.48406 0 0.0254
11:56 am 11:56 Cloudy with Light Rain 40 4.4 37 2.8 89 89 WNW 17 28 29.49 999 8 12.87472 0 0.0254
12:56 pm 12:56 Cloudy with Light Rain 40 4.4 36 2.2 86 86 WNW 24 39 29.5 999 10 16.0934 0 0.0254
1:15 pm 13:15 Cloudy 43 6 37 3 81 81 WNW 22 35 29.5 999 10 16.0934 0 0.0254
1:56 pm 13:56 Cloudy with Light Rain 41 5 36 2.2 82 82 NW 23 37 29.51 999 8 12.87472 0 0.0254
2:56 pm 14:56 Cloudy with Light Rain 41 5 35 1.7 79 79 WNW 24 39 29.52 1000 10 16.0934 0 0.0254
3:56 pm 15:56 Cloudy 42 5.6 36 2.2 79 79 NW 21 33 29.54 1001 10 16.0934 0.01 0.254
4:56 pm 16:56 Cloudy with Light Rain 40 4.4 36 2.2 86 86 WNW 22 35 29.58 1002 9 14.48406 0 0.0254
5:54 pm 17:54 Cloudy with Light Rain 39 4 36 2 87 87 NNW 14 22 29.62 1003 10 16.0934 0.02 0.508
5:56 pm 17:56 Cloudy with Light Rain 39 3.9 36 2.2 89 89 NNW 13 20 29.62 1003 10 16.0934 0.02 0.508
6:13 pm 18:13 Cloudy with Light Rain 39 4 36 2 87 87 NW 18 30 29.65 1004 10 16.0934 0 0.0254
6:56 pm 18:56 Cloudy with Light Rain 40 4.4 36 2.2 86 86 WNW 21 33 29.65 1004 8 12.87472 0 0.0254
7:34 pm 19:34 Cloudy with Light Rain 39 4 36 2 87 87 NW 25 41 29.71 1006 9 14.48406 0 0.0254
7:56 pm 19:56 Cloudy with Light Rain 39 3.9 35 1.7 86 86 NW 26 43 29.7 1006 5 8.0467 0.01 0.254
8:36 pm 20:36 Cloudy with Light Rain 37 3 34 1 87 87 NW 25 41 29.74 1007 8 12.87472 0.02 0.508
8:56 pm 20:56 Cloudy with Light Rain 38 3.3 33 0.6 83 83 NW 29 46 29.74 1007 10 16.0934 0.02 0.508
9:34 pm 21:34 Cloudy with Rain 36 2 34 1 93 93 NW 20 31 29.77 1008 4 6.43736 0.02 0.508
9:56 pm 21:56 Cloudy with Light Snow 35 1.7 33 0.6 93 93 WNW 14 22 29.78 1009 2.5 4.02335 0.05 1.27
10:03 pm 22:03 Cloudy with Light Snow 36 2 34 1 93 93 WNW 16 26 29.8 1009 5 8.0467 0 0.0254
10:32 pm 22:32 Cloudy with Light Rain 37 3 36 2 93 93 WNW 16 26 29.8 1009 10 16.0934 0.01 0.254
10:56 pm 22:56 Cloudy with Light Rain 37 2.8 34 1.1 89 89 NW 18 30 29.8 1009 10 16.0934 0.02 0.508
11:56 pm 23:56 Cloudy with Light Rain 37 2.8 34 1.1 89 89 WNW 20 31 29.8 1009 10 16.0934 0 0.0254

Powered by AerisWeather